Year,Month,Day,Hour,Minute,Value (Times are PST for windspeed in km/hr)
2017,05,26,00,00,0.50
2017,05,26,00,01,1.60
2017,05,26,00,02,0.20
2017,05,26,00,03,1.30
2017,05,26,00,04,1.20
2017,05,26,00,05,0.00
2017,05,26,00,06,0.20
2017,05,26,00,07,0.60
2017,05,26,00,08,0.00
2017,05,26,00,09,0.00
2017,05,26,00,10,0.00
2017,05,26,00,11,0.00
2017,05,26,00,12,0.00
2017,05,26,00,13,0.00
2017,05,26,00,14,2.40
2017,05,26,00,15,1.90
2017,05,26,00,16,0.80
2017,05,26,00,17,0.30
2017,05,26,00,18,1.90
2017,05,26,00,19,0.30
2017,05,26,00,20,0.00
2017,05,26,00,21,0.50
2017,05,26,00,22,0.00
2017,05,26,00,23,2.30
2017,05,26,00,24,0.00
2017,05,26,00,25,0.00
2017,05,26,00,26,0.00
2017,05,26,00,27,0.40
2017,05,26,00,28,0.30
2017,05,26,00,29,0.80
2017,05,26,00,30,0.70
2017,05,26,00,31,0.40
2017,05,26,00,32,0.10
2017,05,26,00,33,1.80
2017,05,26,00,34,1.90
2017,05,26,00,35,1.60
2017,05,26,00,36,0.80
2017,05,26,00,37,0.20
2017,05,26,00,38,0.10
2017,05,26,00,39,1.20
2017,05,26,00,40,1.80
2017,05,26,00,41,0.30
2017,05,26,00,42,2.10
2017,05,26,00,43,4.50
2017,05,26,00,44,2.50
2017,05,26,00,45,2.80
2017,05,26,00,46,2.00
2017,05,26,00,47,1.60
2017,05,26,00,48,1.80
2017,05,26,00,49,4.00
2017,05,26,00,50,2.70
2017,05,26,00,51,3.10
2017,05,26,00,52,2.10
2017,05,26,00,53,3.70
2017,05,26,00,54,1.70
2017,05,26,00,55,2.10
2017,05,26,00,56,2.60
2017,05,26,00,57,3.00
2017,05,26,00,58,0.90
2017,05,26,00,59,1.30
2017,05,26,01,00,0.80
2017,05,26,01,01,3.70
2017,05,26,01,02,1.80
2017,05,26,01,03,2.80
2017,05,26,01,04,0.70
2017,05,26,01,05,1.10
2017,05,26,01,06,2.40
2017,05,26,01,07,1.60
2017,05,26,01,08,1.80
2017,05,26,01,09,1.30
2017,05,26,01,10,0.20
2017,05,26,01,11,0.90
2017,05,26,01,12,0.10
2017,05,26,01,13,1.40
2017,05,26,01,14,1.60
2017,05,26,01,15,2.90
2017,05,26,01,16,1.20
2017,05,26,01,17,1.10
2017,05,26,01,18,0.20
2017,05,26,01,19,0.80
2017,05,26,01,20,1.90
2017,05,26,01,21,0.60
2017,05,26,01,22,0.20
2017,05,26,01,23,1.00
2017,05,26,01,24,1.50
2017,05,26,01,25,0.00
2017,05,26,01,26,0.80
2017,05,26,01,27,0.30
2017,05,26,01,28,2.20
2017,05,26,01,29,1.30
2017,05,26,01,30,0.60
2017,05,26,01,31,1.70
2017,05,26,01,32,0.20
2017,05,26,01,33,2.70
2017,05,26,01,34,1.60
2017,05,26,01,35,2.30
2017,05,26,01,36,1.10
2017,05,26,01,37,2.00
2017,05,26,01,38,3.40
2017,05,26,01,39,0.60
2017,05,26,01,40,2.20
2017,05,26,01,41,2.50
2017,05,26,01,42,2.20
2017,05,26,01,43,2.20
2017,05,26,01,44,2.20
2017,05,26,01,45,3.10
2017,05,26,01,46,2.30
2017,05,26,01,47,1.40
2017,05,26,01,48,0.70
2017,05,26,01,49,0.70
2017,05,26,01,50,1.50
2017,05,26,01,51,0.80
2017,05,26,01,52,0.60
2017,05,26,01,53,1.20
2017,05,26,01,54,1.30
2017,05,26,01,55,1.40
2017,05,26,01,56,2.90
2017,05,26,01,57,1.80
2017,05,26,01,58,1.00
2017,05,26,01,59,0.10
2017,05,26,02,00,0.10
2017,05,26,02,01,0.70
2017,05,26,02,02,1.30
2017,05,26,02,03,0.60
2017,05,26,02,04,1.40
2017,05,26,02,05,0.40
2017,05,26,02,06,1.70
2017,05,26,02,07,1.70
2017,05,26,02,08,1.90
2017,05,26,02,09,1.50
2017,05,26,02,10,0.50
2017,05,26,02,11,2.40
2017,05,26,02,12,3.20
2017,05,26,02,13,2.30
2017,05,26,02,14,2.00
2017,05,26,02,15,1.70
2017,05,26,02,16,2.20
2017,05,26,02,17,2.10
2017,05,26,02,18,2.90
2017,05,26,02,19,4.30
2017,05,26,02,20,2.90
2017,05,26,02,21,0.60
2017,05,26,02,22,1.60
2017,05,26,02,23,1.30
2017,05,26,02,24,2.70
2017,05,26,02,25,1.00
2017,05,26,02,26,1.70
2017,05,26,02,27,0.20
2017,05,26,02,28,0.40
2017,05,26,02,29,0.40
2017,05,26,02,30,0.20
2017,05,26,02,31,0.10
2017,05,26,02,32,0.00
2017,05,26,02,33,0.00
2017,05,26,02,34,0.00
2017,05,26,02,35,0.00
2017,05,26,02,36,0.00
2017,05,26,02,37,0.20
2017,05,26,02,38,0.10
2017,05,26,02,39,1.30
2017,05,26,02,40,1.40
2017,05,26,02,41,0.20
2017,05,26,02,42,0.00
2017,05,26,02,43,0.00
2017,05,26,02,44,0.00
2017,05,26,02,45,0.00
2017,05,26,02,46,0.00
2017,05,26,02,47,0.70
2017,05,26,02,48,0.50
2017,05,26,02,49,1.20
2017,05,26,02,50,1.60
2017,05,26,02,51,1.60
2017,05,26,02,52,1.40
2017,05,26,02,53,1.60
2017,05,26,02,54,0.90
2017,05,26,02,55,0.90
2017,05,26,02,56,1.40
2017,05,26,02,57,0.80
2017,05,26,02,58,0.10
2017,05,26,02,59,0.70
2017,05,26,03,00,0.10
2017,05,26,03,01,0.00
2017,05,26,03,02,0.00
2017,05,26,03,03,0.00
2017,05,26,03,04,0.20
2017,05,26,03,05,0.90
2017,05,26,03,06,0.10
2017,05,26,03,07,0.00
2017,05,26,03,08,0.00
2017,05,26,03,09,0.70
2017,05,26,03,10,0.90
2017,05,26,03,11,1.00
2017,05,26,03,12,1.70
2017,05,26,03,13,1.20
2017,05,26,03,14,1.60
2017,05,26,03,15,1.90
2017,05,26,03,16,1.10
2017,05,26,03,17,0.30
2017,05,26,03,18,0.90
2017,05,26,03,19,1.80
2017,05,26,03,20,0.80
2017,05,26,03,21,0.60
2017,05,26,03,22,0.00
2017,05,26,03,23,0.00
2017,05,26,03,24,0.00
2017,05,26,03,25,0.00
2017,05,26,03,26,0.00
2017,05,26,03,27,0.40
2017,05,26,03,28,1.20
2017,05,26,03,29,1.10
2017,05,26,03,30,0.10
2017,05,26,03,31,0.00
2017,05,26,03,32,0.00
2017,05,26,03,33,0.00
2017,05,26,03,34,0.00
2017,05,26,03,35,0.40
2017,05,26,03,36,0.20
2017,05,26,03,37,2.30
2017,05,26,03,38,0.90
2017,05,26,03,39,1.10
2017,05,26,03,40,0.70
2017,05,26,03,41,3.40
2017,05,26,03,42,2.50
2017,05,26,03,43,2.90
2017,05,26,03,44,2.30
2017,05,26,03,45,2.80
2017,05,26,03,46,3.90
2017,05,26,03,47,3.10
2017,05,26,03,48,0.60
2017,05,26,03,49,0.00
2017,05,26,03,50,1.60
2017,05,26,03,51,3.20
2017,05,26,03,52,2.40
2017,05,26,03,53,2.30
2017,05,26,03,54,0.70
2017,05,26,03,55,1.70
2017,05,26,03,56,2.90
2017,05,26,03,57,2.00
2017,05,26,03,58,0.70
2017,05,26,03,59,2.10
2017,05,26,04,00,3.10
2017,05,26,04,01,2.70
2017,05,26,04,02,3.70
2017,05,26,04,03,2.80
2017,05,26,04,04,2.80
2017,05,26,04,05,1.60
2017,05,26,04,06,1.70
2017,05,26,04,07,2.50
2017,05,26,04,08,1.80
2017,05,26,04,09,1.50
2017,05,26,04,10,2.10
2017,05,26,04,11,1.90
2017,05,26,04,12,2.10
2017,05,26,04,13,3.50
2017,05,26,04,14,3.40
2017,05,26,04,15,1.70
2017,05,26,04,16,2.90
2017,05,26,04,17,2.80
2017,05,26,04,18,3.70
2017,05,26,04,19,1.00
2017,05,26,04,20,2.00
2017,05,26,04,21,3.30
2017,05,26,04,22,3.00
2017,05,26,04,23,1.20
2017,05,26,04,24,4.40
2017,05,26,04,25,2.90
2017,05,26,04,26,2.30
2017,05,26,04,27,0.80
2017,05,26,04,28,1.30
2017,05,26,04,29,0.90
2017,05,26,04,30,2.10
2017,05,26,04,31,0.30
2017,05,26,04,32,2.20
2017,05,26,04,33,1.20
2017,05,26,04,34,2.80
2017,05,26,04,35,3.10
2017,05,26,04,36,1.20
2017,05,26,04,37,2.40
2017,05,26,04,38,1.50
2017,05,26,04,39,1.30
2017,05,26,04,40,2.40
2017,05,26,04,41,2.80
2017,05,26,04,42,1.90
2017,05,26,04,43,1.60
2017,05,26,04,44,0.20
2017,05,26,04,45,1.10
2017,05,26,04,46,0.90
2017,05,26,04,47,1.50
2017,05,26,04,48,1.40
2017,05,26,04,49,0.40
2017,05,26,04,50,0.10
2017,05,26,04,51,1.60
2017,05,26,04,52,2.10
2017,05,26,04,53,2.30
2017,05,26,04,54,3.70
2017,05,26,04,55,4.90
2017,05,26,04,56,3.30
2017,05,26,04,57,2.70
2017,05,26,04,58,1.10
2017,05,26,04,59,2.20
2017,05,26,05,00,1.30
2017,05,26,05,01,3.20
2017,05,26,05,02,0.40
2017,05,26,05,03,2.80
2017,05,26,05,04,2.00
2017,05,26,05,05,2.10
2017,05,26,05,06,3.00
2017,05,26,05,07,3.70
2017,05,26,05,08,3.30
2017,05,26,05,09,1.60
2017,05,26,05,10,1.30
2017,05,26,05,11,3.60
2017,05,26,05,12,2.90
2017,05,26,05,13,2.20
2017,05,26,05,14,1.80
2017,05,26,05,15,2.70
2017,05,26,05,16,2.50
2017,05,26,05,17,1.20
2017,05,26,05,18,0.90
2017,05,26,05,19,1.80
2017,05,26,05,20,1.80
2017,05,26,05,21,2.70
2017,05,26,05,22,2.60
2017,05,26,05,23,1.30
2017,05,26,05,24,2.20
2017,05,26,05,25,2.30
2017,05,26,05,26,1.70
2017,05,26,05,27,0.30
2017,05,26,05,28,1.20
2017,05,26,05,29,2.70
2017,05,26,05,30,0.80
2017,05,26,05,31,1.00
2017,05,26,05,32,1.10
2017,05,26,05,33,1.80
2017,05,26,05,34,3.30
2017,05,26,05,35,3.20
2017,05,26,05,36,4.30
2017,05,26,05,37,1.30
2017,05,26,05,38,0.80
2017,05,26,05,39,0.00
2017,05,26,05,40,0.00
2017,05,26,05,41,0.00
2017,05,26,05,42,2.30
2017,05,26,05,43,3.70
2017,05,26,05,44,1.60
2017,05,26,05,45,0.50
2017,05,26,05,46,2.20
2017,05,26,05,47,1.90
2017,05,26,05,48,0.90
2017,05,26,05,49,0.60
2017,05,26,05,50,0.90
2017,05,26,05,51,1.20
2017,05,26,05,52,2.10
2017,05,26,05,53,2.10
2017,05,26,05,54,1.20
2017,05,26,05,55,2.30
2017,05,26,05,56,1.40
2017,05,26,05,57,3.20
2017,05,26,05,58,1.20
2017,05,26,05,59,0.70
2017,05,26,06,00,1.90
2017,05,26,06,01,2.50
2017,05,26,06,02,1.50
2017,05,26,06,03,1.60
2017,05,26,06,04,2.20
2017,05,26,06,05,0.40
2017,05,26,06,06,1.20
2017,05,26,06,07,1.60
2017,05,26,06,08,1.50
2017,05,26,06,09,1.40
2017,05,26,06,10,1.30
2017,05,26,06,11,1.70
2017,05,26,06,12,2.10
2017,05,26,06,13,1.80
2017,05,26,06,14,2.10
2017,05,26,06,15,1.90
2017,05,26,06,16,2.30
2017,05,26,06,17,1.70
2017,05,26,06,18,1.30
2017,05,26,06,19,1.00
2017,05,26,06,20,1.30
2017,05,26,06,21,0.90
2017,05,26,06,22,0.90
2017,05,26,06,23,0.80
2017,05,26,06,24,1.60
2017,05,26,06,25,0.50
2017,05,26,06,26,0.30
2017,05,26,06,27,0.80
2017,05,26,06,28,0.20
2017,05,26,06,29,0.90
2017,05,26,06,30,1.30
2017,05,26,06,31,1.70
2017,05,26,06,32,2.20
2017,05,26,06,33,2.10
2017,05,26,06,34,0.50
2017,05,26,06,35,0.20
2017,05,26,06,36,0.60
2017,05,26,06,37,0.20
2017,05,26,06,38,0.20
2017,05,26,06,39,1.60
2017,05,26,06,40,1.50
2017,05,26,06,41,2.00
2017,05,26,06,42,1.80
2017,05,26,06,43,1.70
2017,05,26,06,44,0.80
2017,05,26,06,45,1.80
2017,05,26,06,46,2.40
2017,05,26,06,47,1.60
2017,05,26,06,48,2.40
2017,05,26,06,49,1.30
2017,05,26,06,50,1.70
2017,05,26,06,51,2.10
2017,05,26,06,52,2.60
2017,05,26,06,53,1.50
2017,05,26,06,54,3.50
2017,05,26,06,55,3.10
2017,05,26,06,56,4.20
2017,05,26,06,57,2.30
2017,05,26,06,58,3.80
2017,05,26,06,59,4.90
2017,05,26,07,00,4.00
2017,05,26,07,01,3.80
2017,05,26,07,02,4.20
2017,05,26,07,03,5.70
2017,05,26,07,04,2.90
2017,05,26,07,05,2.80
2017,05,26,07,06,2.30
2017,05,26,07,07,2.50
2017,05,26,07,08,5.60
2017,05,26,07,09,4.80
2017,05,26,07,10,5.40
2017,05,26,07,11,3.90
2017,05,26,07,12,4.50
2017,05,26,07,13,1.20
2017,05,26,07,14,3.80
2017,05,26,07,15,3.60
2017,05,26,07,16,8.60
2017,05,26,07,17,3.80
2017,05,26,07,18,3.10
2017,05,26,07,19,2.40
2017,05,26,07,20,2.70
2017,05,26,07,21,3.40
2017,05,26,07,22,2.20
2017,05,26,07,23,3.80
2017,05,26,07,24,4.90
2017,05,26,07,25,3.20
2017,05,26,07,26,3.70
2017,05,26,07,27,4.50
2017,05,26,07,28,3.30
2017,05,26,07,29,6.20
2017,05,26,07,30,7.90
2017,05,26,07,31,4.20
2017,05,26,07,32,6.20
2017,05,26,07,33,3.80
2017,05,26,07,34,6.60
2017,05,26,07,35,5.70
2017,05,26,07,36,3.90
2017,05,26,07,37,7.70
2017,05,26,07,38,8.90
2017,05,26,07,39,4.40
2017,05,26,07,40,4.50
2017,05,26,07,41,4.50
2017,05,26,07,42,5.90
2017,05,26,07,43,5.10
2017,05,26,07,44,2.80
2017,05,26,07,45,2.90
2017,05,26,07,46,6.70
2017,05,26,07,47,2.50
2017,05,26,07,48,2.70
2017,05,26,07,49,0.80
2017,05,26,07,50,2.00
2017,05,26,07,51,2.10
2017,05,26,07,52,2.20
2017,05,26,07,53,3.20
2017,05,26,07,54,1.60
2017,05,26,07,55,1.50
2017,05,26,07,56,1.90
2017,05,26,07,57,1.80
2017,05,26,07,58,1.70
2017,05,26,07,59,0.90
2017,05,26,08,00,1.50
2017,05,26,08,01,0.70
2017,05,26,08,02,0.20
2017,05,26,08,03,3.50
2017,05,26,08,04,3.40
2017,05,26,08,05,2.70
2017,05,26,08,06,3.20
2017,05,26,08,07,3.00
2017,05,26,08,08,3.40
2017,05,26,08,09,2.90
2017,05,26,08,10,1.60
2017,05,26,08,11,3.50
2017,05,26,08,12,2.90
2017,05,26,08,13,2.80
2017,05,26,08,14,3.70
2017,05,26,08,15,2.70
2017,05,26,08,16,2.40
2017,05,26,08,17,2.40
2017,05,26,08,18,1.40
2017,05,26,08,19,3.40
2017,05,26,08,20,2.70
2017,05,26,08,21,2.20
2017,05,26,08,22,1.10
2017,05,26,08,23,0.70
2017,05,26,08,24,2.90
2017,05,26,08,25,2.70
2017,05,26,08,26,4.40
2017,05,26,08,27,3.60
2017,05,26,08,28,2.70
2017,05,26,08,29,2.40
2017,05,26,08,30,1.30
2017,05,26,08,31,1.70
2017,05,26,08,32,3.40
2017,05,26,08,33,1.80
2017,05,26,08,34,2.10
2017,05,26,08,35,3.10
2017,05,26,08,36,2.00
2017,05,26,08,37,2.80
2017,05,26,08,38,3.30
2017,05,26,08,39,4.50
2017,05,26,08,40,4.00
2017,05,26,08,41,2.30
2017,05,26,08,42,2.40
2017,05,26,08,43,1.40
2017,05,26,08,44,1.10
2017,05,26,08,45,2.60
2017,05,26,08,46,3.40
2017,05,26,08,47,2.20
2017,05,26,08,48,1.70
2017,05,26,08,49,1.40
2017,05,26,08,50,2.80
2017,05,26,08,51,6.80
2017,05,26,08,52,3.30
2017,05,26,08,53,2.50
2017,05,26,08,54,1.60
2017,05,26,08,55,1.40
2017,05,26,08,56,2.00
2017,05,26,08,57,3.60
2017,05,26,08,58,3.40
2017,05,26,08,59,3.90
2017,05,26,09,00,4.10
2017,05,26,09,01,3.40
2017,05,26,09,02,3.00
2017,05,26,09,03,1.80
2017,05,26,09,04,4.90
2017,05,26,09,05,3.70
2017,05,26,09,06,7.40
2017,05,26,09,07,6.50
2017,05,26,09,08,3.70
2017,05,26,09,09,2.70
2017,05,26,09,10,2.50
2017,05,26,09,11,2.30
2017,05,26,09,12,2.40
2017,05,26,09,13,3.40
2017,05,26,09,14,7.10
2017,05,26,09,15,3.40
2017,05,26,09,16,4.90
2017,05,26,09,17,7.00
2017,05,26,09,18,5.30
2017,05,26,09,19,4.10
2017,05,26,09,20,2.40
2017,05,26,09,21,1.80
2017,05,26,09,22,1.70
2017,05,26,09,23,1.70
2017,05,26,09,24,2.90
2017,05,26,09,25,3.00
2017,05,26,09,26,5.20
2017,05,26,09,27,3.30
2017,05,26,09,28,2.20
2017,05,26,09,29,2.00
2017,05,26,09,30,2.30
2017,05,26,09,31,3.70
2017,05,26,09,32,5.70
2017,05,26,09,33,3.20
2017,05,26,09,34,2.50
2017,05,26,09,35,4.40
2017,05,26,09,36,3.30
2017,05,26,09,37,1.60
2017,05,26,09,38,2.50
2017,05,26,09,39,4.70
2017,05,26,09,40,6.90
2017,05,26,09,41,5.10
2017,05,26,09,42,5.50
2017,05,26,09,43,3.30
2017,05,26,09,44,6.20
2017,05,26,09,45,8.50
2017,05,26,09,46,7.00
2017,05,26,09,47,6.20
2017,05,26,09,48,5.10
2017,05,26,09,49,5.50
2017,05,26,09,50,6.10
2017,05,26,09,51,5.90
2017,05,26,09,52,5.10
2017,05,26,09,53,3.10
2017,05,26,09,54,3.00
2017,05,26,09,55,2.80
2017,05,26,09,56,3.50
2017,05,26,09,57,5.40
2017,05,26,09,58,7.30
2017,05,26,09,59,7.70
2017,05,26,10,00,7.50
2017,05,26,10,01,6.20
2017,05,26,10,02,8.00
2017,05,26,10,03,9.00
2017,05,26,10,04,5.80
2017,05,26,10,05,3.70
2017,05,26,10,06,6.80
2017,05,26,10,07,4.50
2017,05,26,10,08,2.70
2017,05,26,10,09,4.10
2017,05,26,10,10,8.20
2017,05,26,10,11,7.40
2017,05,26,10,12,6.60
2017,05,26,10,13,7.40
2017,05,26,10,14,7.30
2017,05,26,10,15,7.70
2017,05,26,10,16,7.00
2017,05,26,10,17,8.60
2017,05,26,10,18,7.90
2017,05,26,10,19,7.00
2017,05,26,10,20,7.10
2017,05,26,10,21,8.40
2017,05,26,10,22,7.40
2017,05,26,10,23,6.00
2017,05,26,10,24,6.80
2017,05,26,10,25,7.10
2017,05,26,10,26,6.80
2017,05,26,10,27,6.70
2017,05,26,10,28,6.70
2017,05,26,10,29,7.80
2017,05,26,10,30,9.10
2017,05,26,10,31,6.10
2017,05,26,10,32,5.20
2017,05,26,10,33,10.80
2017,05,26,10,34,8.20
2017,05,26,10,35,6.30
2017,05,26,10,36,8.20
2017,05,26,10,37,7.30
2017,05,26,10,38,8.30
2017,05,26,10,39,5.60
2017,05,26,10,40,7.00
2017,05,26,10,41,10.10
2017,05,26,10,42,7.30
2017,05,26,10,43,6.90
2017,05,26,10,44,11.80
2017,05,26,10,45,9.90
2017,05,26,10,46,9.40
2017,05,26,10,47,9.80
2017,05,26,10,48,11.50
2017,05,26,10,49,7.60
2017,05,26,10,50,7.00
2017,05,26,10,51,6.40
2017,05,26,10,52,5.70
2017,05,26,10,53,9.40
2017,05,26,10,54,7.30
2017,05,26,10,55,7.80
2017,05,26,10,56,6.80
2017,05,26,10,57,7.10
2017,05,26,10,58,4.90
2017,05,26,10,59,5.00
2017,05,26,11,00,6.10
2017,05,26,11,01,7.70
2017,05,26,11,02,7.90
2017,05,26,11,03,5.60
2017,05,26,11,04,8.10
2017,05,26,11,05,9.50
2017,05,26,11,06,10.70
2017,05,26,11,07,9.40
2017,05,26,11,08,9.60
2017,05,26,11,09,7.00
2017,05,26,11,10,7.20
2017,05,26,11,11,9.90
2017,05,26,11,12,6.70
2017,05,26,11,13,3.60
2017,05,26,11,14,5.30
2017,05,26,11,15,10.90
2017,05,26,11,16,9.50
2017,05,26,11,17,6.40
2017,05,26,11,18,6.30
2017,05,26,11,19,9.60
2017,05,26,11,20,8.50
2017,05,26,11,21,8.40
2017,05,26,11,22,5.50
2017,05,26,11,23,7.90
2017,05,26,11,24,8.50
2017,05,26,11,25,10.60
2017,05,26,11,26,10.80
2017,05,26,11,27,7.60
2017,05,26,11,28,11.00
2017,05,26,11,29,9.10
2017,05,26,11,30,12.10
2017,05,26,11,31,12.50
2017,05,26,11,32,9.70
2017,05,26,11,33,13.60
2017,05,26,11,34,11.60
2017,05,26,11,35,9.90
2017,05,26,11,36,12.10
2017,05,26,11,37,13.00
2017,05,26,11,38,11.80
2017,05,26,11,39,10.60
2017,05,26,11,40,9.30
2017,05,26,11,41,10.10
2017,05,26,11,42,6.70
2017,05,26,11,43,9.20
2017,05,26,11,44,9.60
2017,05,26,11,45,10.60
2017,05,26,11,46,7.80
2017,05,26,11,47,10.20
2017,05,26,11,48,9.20
2017,05,26,11,49,9.50
2017,05,26,11,50,10.40
2017,05,26,11,51,8.10
2017,05,26,11,52,9.70
2017,05,26,11,53,9.10
2017,05,26,11,54,8.10
2017,05,26,11,55,10.90
2017,05,26,11,56,12.20
2017,05,26,11,57,9.60
2017,05,26,11,58,8.50
2017,05,26,11,59,7.20
2017,05,26,12,00,9.30
2017,05,26,12,01,8.80
2017,05,26,12,02,8.40
2017,05,26,12,03,12.90
2017,05,26,12,04,11.30
2017,05,26,12,05,5.30
2017,05,26,12,06,9.50
2017,05,26,12,07,10.80
2017,05,26,12,08,10.10
2017,05,26,12,09,7.40
2017,05,26,12,10,7.70
2017,05,26,12,11,14.30
2017,05,26,12,12,12.00
2017,05,26,12,13,9.50
2017,05,26,12,14,12.30
2017,05,26,12,15,8.10
2017,05,26,12,16,6.30
2017,05,26,12,17,8.80
2017,05,26,12,18,11.70
2017,05,26,12,19,13.90
2017,05,26,12,20,10.30
2017,05,26,12,21,9.30
2017,05,26,12,22,9.80
2017,05,26,12,23,8.60
2017,05,26,12,24,11.70
2017,05,26,12,25,7.90
2017,05,26,12,26,7.50
2017,05,26,12,27,10.00
2017,05,26,12,28,8.70
2017,05,26,12,29,10.40
2017,05,26,12,30,10.40
2017,05,26,12,31,10.90
2017,05,26,12,32,11.00
2017,05,26,12,33,7.30
2017,05,26,12,34,6.40
2017,05,26,12,35,10.20
2017,05,26,12,36,11.40
2017,05,26,12,37,12.10
2017,05,26,12,38,14.00
2017,05,26,12,39,10.90
2017,05,26,12,40,10.30
2017,05,26,12,41,6.40
2017,05,26,12,42,7.90
2017,05,26,12,43,6.90
2017,05,26,12,44,10.60
2017,05,26,12,45,11.00
2017,05,26,12,46,10.30
2017,05,26,12,47,8.60
2017,05,26,12,48,12.90
2017,05,26,12,49,9.60
2017,05,26,12,50,8.60
2017,05,26,12,51,10.40
2017,05,26,12,52,13.00
2017,05,26,12,53,13.40
2017,05,26,12,54,13.20
2017,05,26,12,55,11.10
2017,05,26,12,56,12.40
2017,05,26,12,57,7.40
2017,05,26,12,58,8.20
2017,05,26,12,59,11.10
2017,05,26,13,00,9.50
2017,05,26,13,01,13.30
2017,05,26,13,02,10.40
2017,05,26,13,03,7.20
2017,05,26,13,04,7.80
2017,05,26,13,05,7.80
2017,05,26,13,06,12.80
2017,05,26,13,07,11.90
2017,05,26,13,08,9.20
2017,05,26,13,09,10.60
2017,05,26,13,10,9.40
2017,05,26,13,11,12.80
2017,05,26,13,12,10.20
2017,05,26,13,13,11.60
2017,05,26,13,14,11.40
2017,05,26,13,15,12.10
2017,05,26,13,16,11.10
2017,05,26,13,17,9.60
2017,05,26,13,18,11.80
2017,05,26,13,19,10.80
2017,05,26,13,20,9.40
2017,05,26,13,21,9.30
2017,05,26,13,22,9.00
2017,05,26,13,23,10.80
2017,05,26,13,24,10.00
2017,05,26,13,25,11.60
2017,05,26,13,26,8.80
2017,05,26,13,27,9.00
2017,05,26,13,28,10.40
2017,05,26,13,29,10.20
2017,05,26,13,30,12.20
2017,05,26,13,31,11.50
2017,05,26,13,32,9.30
2017,05,26,13,33,8.90
2017,05,26,13,34,8.40
2017,05,26,13,35,8.80
2017,05,26,13,36,7.10
2017,05,26,13,37,6.90
2017,05,26,13,38,7.30
2017,05,26,13,39,4.90
2017,05,26,13,40,4.10
2017,05,26,13,41,4.20
2017,05,26,13,42,11.60
2017,05,26,13,43,9.90
2017,05,26,13,44,9.20
2017,05,26,13,45,8.60
2017,05,26,13,46,11.70
2017,05,26,13,47,9.30
2017,05,26,13,48,7.60
2017,05,26,13,49,9.20
2017,05,26,13,50,12.30
2017,05,26,13,51,12.30
2017,05,26,13,52,9.00
2017,05,26,13,53,12.80
2017,05,26,13,54,9.00
2017,05,26,13,55,11.00
2017,05,26,13,56,11.30
2017,05,26,13,57,10.60
2017,05,26,13,58,8.70
2017,05,26,13,59,6.90
2017,05,26,14,00,6.40
2017,05,26,14,01,8.70
2017,05,26,14,02,10.00
2017,05,26,14,03,11.10
2017,05,26,14,04,10.20
2017,05,26,14,05,5.40
2017,05,26,14,06,7.80
2017,05,26,14,07,10.10
2017,05,26,14,08,10.60
2017,05,26,14,09,9.50
2017,05,26,14,10,6.40
2017,05,26,14,11,7.40
2017,05,26,14,12,7.10
2017,05,26,14,13,9.80
2017,05,26,14,14,11.20
2017,05,26,14,15,12.80
2017,05,26,14,16,10.70
2017,05,26,14,17,10.60
2017,05,26,14,18,7.50
2017,05,26,14,19,6.10
2017,05,26,14,20,7.10
2017,05,26,14,21,8.40
2017,05,26,14,22,8.10
2017,05,26,14,23,7.80
2017,05,26,14,24,8.80
2017,05,26,14,25,9.20
2017,05,26,14,26,9.20
2017,05,26,14,27,8.90
2017,05,26,14,28,6.90
2017,05,26,14,29,7.70
2017,05,26,14,30,7.50
2017,05,26,14,31,7.60
2017,05,26,14,32,5.20
2017,05,26,14,33,6.80
2017,05,26,14,34,8.10
2017,05,26,14,35,7.00
2017,05,26,14,36,8.10
2017,05,26,14,37,7.40
2017,05,26,14,38,5.70
2017,05,26,14,39,7.40
2017,05,26,14,40,7.00
2017,05,26,14,41,7.40
2017,05,26,14,42,6.10
2017,05,26,14,43,8.90
2017,05,26,14,44,8.40
2017,05,26,14,45,10.20
2017,05,26,14,46,7.90
2017,05,26,14,47,6.80
2017,05,26,14,48,4.50
2017,05,26,14,49,4.90
2017,05,26,14,50,4.70
2017,05,26,14,51,5.30
2017,05,26,14,52,6.60
2017,05,26,14,53,4.40
2017,05,26,14,54,6.90
2017,05,26,14,55,8.70
2017,05,26,14,56,7.50
2017,05,26,14,57,5.30
2017,05,26,14,58,5.10
2017,05,26,14,59,5.50
2017,05,26,15,00,5.00
2017,05,26,15,01,5.30
2017,05,26,15,02,7.90
2017,05,26,15,03,7.30
2017,05,26,15,04,3.70
2017,05,26,15,05,4.10
2017,05,26,15,06,3.60
2017,05,26,15,07,6.30
2017,05,26,15,08,6.60
2017,05,26,15,09,6.40
2017,05,26,15,10,5.80
2017,05,26,15,11,5.90
2017,05,26,15,12,7.00
2017,05,26,15,13,7.80
2017,05,26,15,14,8.30
2017,05,26,15,15,6.70
2017,05,26,15,16,3.00
2017,05,26,15,17,3.90
2017,05,26,15,18,6.00
2017,05,26,15,19,5.30
2017,05,26,15,20,5.90
2017,05,26,15,21,5.40
2017,05,26,15,22,5.40
2017,05,26,15,23,6.50
2017,05,26,15,24,5.30
2017,05,26,15,25,3.50
2017,05,26,15,26,4.00
2017,05,26,15,27,7.90
2017,05,26,15,28,5.10
2017,05,26,15,29,9.50
2017,05,26,15,30,9.20
2017,05,26,15,31,6.30
2017,05,26,15,32,4.20
2017,05,26,15,33,2.90
2017,05,26,15,34,5.00
2017,05,26,15,35,7.80
2017,05,26,15,36,7.90
2017,05,26,15,37,4.20
2017,05,26,15,38,3.80
2017,05,26,15,39,5.70
2017,05,26,15,40,3.40
2017,05,26,15,41,1.10
2017,05,26,15,42,3.50
2017,05,26,15,43,3.70
2017,05,26,15,44,3.20
2017,05,26,15,45,4.40
2017,05,26,15,46,3.70
2017,05,26,15,47,4.70
2017,05,26,15,48,7.30
2017,05,26,15,49,4.80
2017,05,26,15,50,1.80
2017,05,26,15,51,4.20
2017,05,26,15,52,7.50
2017,05,26,15,53,6.60
2017,05,26,15,54,2.30
2017,05,26,15,55,4.40
2017,05,26,15,56,4.80
2017,05,26,15,57,3.90
2017,05,26,15,58,5.30
2017,05,26,15,59,5.00
2017,05,26,16,00,8.80
2017,05,26,16,01,10.60
2017,05,26,16,02,8.10
2017,05,26,16,03,5.00
2017,05,26,16,04,4.10
2017,05,26,16,05,1.30
2017,05,26,16,06,1.60
2017,05,26,16,07,1.40
2017,05,26,16,08,2.20
2017,05,26,16,09,2.80
2017,05,26,16,10,5.10
2017,05,26,16,11,3.50
2017,05,26,16,12,3.50
2017,05,26,16,13,4.00
2017,05,26,16,14,3.00
2017,05,26,16,15,2.10
2017,05,26,16,16,5.00
2017,05,26,16,17,3.80
2017,05,26,16,18,3.90
2017,05,26,16,19,5.50
2017,05,26,16,20,5.30
2017,05,26,16,21,3.30
2017,05,26,16,22,1.80
2017,05,26,16,23,4.20
2017,05,26,16,24,2.50
2017,05,26,16,25,2.10
2017,05,26,16,26,1.70
2017,05,26,16,27,2.10
2017,05,26,16,28,3.00
2017,05,26,16,29,2.30
2017,05,26,16,30,4.50
2017,05,26,16,31,2.90
2017,05,26,16,32,0.20
2017,05,26,16,33,2.20
2017,05,26,16,34,4.00
2017,05,26,16,35,2.60
2017,05,26,16,36,2.80
2017,05,26,16,37,1.20
2017,05,26,16,38,2.30
2017,05,26,16,39,2.80
2017,05,26,16,40,3.80
2017,05,26,16,41,1.80
2017,05,26,16,42,2.50
2017,05,26,16,43,3.00
2017,05,26,16,44,4.50
2017,05,26,16,45,5.90
2017,05,26,16,46,5.60
2017,05,26,16,47,4.30
2017,05,26,16,48,4.90
2017,05,26,16,49,5.50
2017,05,26,16,50,6.30
2017,05,26,16,51,4.20
2017,05,26,16,52,3.70
2017,05,26,16,53,2.80
2017,05,26,16,54,3.70
2017,05,26,16,55,5.00
2017,05,26,16,56,3.60
2017,05,26,16,57,2.60
2017,05,26,16,58,2.40
2017,05,26,16,59,4.50
2017,05,26,17,00,5.80
2017,05,26,17,01,5.10
2017,05,26,17,02,5.50
2017,05,26,17,03,6.80
2017,05,26,17,04,3.70
2017,05,26,17,05,5.30
2017,05,26,17,06,6.40
2017,05,26,17,07,6.80
2017,05,26,17,08,4.20
2017,05,26,17,09,4.50
2017,05,26,17,10,4.90
2017,05,26,17,11,7.00
2017,05,26,17,12,5.90
2017,05,26,17,13,6.30
2017,05,26,17,14,5.70
2017,05,26,17,15,4.70
2017,05,26,17,16,7.30
2017,05,26,17,17,5.60
2017,05,26,17,18,5.00
2017,05,26,17,19,3.90
2017,05,26,17,20,6.30
2017,05,26,17,21,6.00
2017,05,26,17,22,6.90
2017,05,26,17,23,6.80
2017,05,26,17,24,5.90
2017,05,26,17,25,5.20
2017,05,26,17,26,6.70
2017,05,26,17,27,4.40
2017,05,26,17,28,3.70
2017,05,26,17,29,3.00
2017,05,26,17,30,4.70
2017,05,26,17,31,4.20
2017,05,26,17,32,5.10
2017,05,26,17,33,4.70
2017,05,26,17,34,3.90
2017,05,26,17,35,5.10
2017,05,26,17,36,5.50
2017,05,26,17,37,3.80
2017,05,26,17,38,2.90
2017,05,26,17,39,3.30
2017,05,26,17,40,2.10
2017,05,26,17,41,4.00
2017,05,26,17,42,4.90
2017,05,26,17,43,3.90
2017,05,26,17,44,3.40
2017,05,26,17,45,5.20
2017,05,26,17,46,3.20
2017,05,26,17,47,0.70
2017,05,26,17,48,0.30
2017,05,26,17,49,2.00
2017,05,26,17,50,2.80
2017,05,26,17,51,2.60
2017,05,26,17,52,1.30
2017,05,26,17,53,3.50
2017,05,26,17,54,3.90
2017,05,26,17,55,2.70
2017,05,26,17,56,1.10
2017,05,26,17,57,1.20
2017,05,26,17,58,1.90
2017,05,26,17,59,1.60
2017,05,26,18,00,0.20
2017,05,26,18,01,2.40
2017,05,26,18,02,1.40